N0RRC Weather Reports


Display with metric or nautical units.
time (UTC)temp
F
wind
direction
speed
MPH
gust
MPH
rain 1hr
in
rain 24hr
in
rain mn
in
humidity
%
barometer
mb
20260503215736 66 244 9.0 19.0 0.00 0.00 0.00 52 1003.8
20260503214655 66 229 6.0 10.0 0.00 0.00 0.00 52 1003.9
20260503213716 66 218 7.0 14.0 0.00 0.00 0.00 53 1004.0
20260503212655 66 238 8.0 13.0 0.00 0.00 0.00 53 1004.0
20260503211717 66 212 6.0 11.0 0.00 0.00 0.00 54 1004.4
20260503210655 66 217 6.0 14.0 0.00 0.00 0.00 54 1004.4
20260503205655 65 222 8.0 14.0 0.00 0.00 0.00 52 1004.3
20260503204655 65 209 9.0 16.0 0.00 0.00 0.00 54 1004.5
20260503203655 65 245 10.0 16.0 0.00 0.00 0.00 54 1004.6
20260503202655 65 214 7.0 14.0 0.00 0.00 0.00 54 1004.9
20260503201655 64 215 8.0 20.0 0.00 0.00 0.00 58 1005.1
20260503200656 63 209 8.0 13.0 0.00 0.00 0.00 57 1005.1
20260503195655 63 224 9.0 14.0 0.00 0.00 0.00 59 1005.4
20260503194655 64 211 8.0 15.0 0.00 0.00 0.00 55 1005.7
20260503193658 64 238 10.0 19.0 0.00 0.00 0.00 57 1005.8
20260503192657 63 217 8.0 16.0 0.00 0.00 0.00 56 1005.9
20260503191658 63 216 12.0 19.0 0.00 0.00 0.00 53 1005.9
20260503190657 63 231 11.0 22.0 0.00 0.00 0.00 54 1006.0
20260503185657 63 217 11.0 18.0 0.00 0.00 0.00 53 1005.9
20260503184657 63 216 10.0 17.0 0.00 0.00 0.00 54 1006.1
20260503183657 63 198 11.0 21.0 0.00 0.00 0.00 56 1006.1
20260503182738 62 217 10.0 19.0 0.00 0.00 0.00 56 1006.0
20260503181657 61 210 11.0 22.0 0.00 0.00 0.00 59 1006.1
20260503180657 61 204 10.0 21.0 0.00 0.00 0.00 62 1006.5
20260503175718 60 206 8.0 16.0 0.00 0.00 0.00 63 1006.8
20260503174657 60 200 14.0 25.0 0.00 0.00 0.00 62 1006.9
20260503173658 60 198 11.0 18.0 0.00 0.00 0.00 62 1007.1
20260503172658 59 213 8.0 20.0 0.00 0.00 0.00 63 1007.3
20260503171657 59 222 8.0 22.0 0.00 0.00 0.00 63 1007.6
20260503170657 58 212 9.0 16.0 0.00 0.00 0.00 61 1007.7
20260503150656 53 224 7.0 15.0 0.00 0.00 0.00 72 1009.1
20260503130656 52 238 8.0 13.0 0.00 0.00 0.00 64 1010.3
20260503110656 48 239 5.0 9.0 0.00 0.00 0.00 64 1010.3
20260503080716 45 187 3.0 6.0 0.00 0.00 0.00 68 1011.4
20260503072657 46 199 2.0 3.0 0.00 0.00 0.00 68 1011.7
20260503071717 46 193 3.0 6.0 0.00 0.00 0.00 67 1011.8
20260503070655 46 196 3.0 10.0 0.00 0.00 0.00 67 1011.7
20260503054656 45 185 4.0 6.0 0.00 0.00 0.00 67 1012.4
20260503053657 45 191 2.0 5.0 0.00 0.00 0.00 66 1012.7
20260503052655 45 195 2.0 4.0 0.00 0.00 0.00 66 1012.5
20260503051738 46 194 3.0 7.0 0.00 0.00 0.00 65 1012.6
20260503050655 46 192 2.0 4.0 0.00 0.00 0.00 65 1012.6
20260503045716 46 212 2.0 4.0 0.00 0.00 0.00 65 1012.7
20260503044656 46 190 2.0 5.0 0.00 0.00 0.00 65 1012.7
20260503043656 46 192 2.0 4.0 0.00 0.00 0.00 65 1012.7
20260503042656 46 194 2.0 4.0 0.00 0.00 0.00 64 1012.8
20260503041657 46 199 2.0 4.0 0.00 0.00 0.00 64 1012.9
20260503040656 46 199 2.0 4.0 0.00 0.00 0.00 64 1013.0
20260503035656 46 196 2.0 4.0 0.00 0.00 0.00 64 1013.1
20260503034657 46 200 2.0 4.0 0.00 0.00 0.00 63 1013.2
20260503033656 46 186 3.0 5.0 0.00 0.00 0.00 63 1013.1
20260503032657 46 179 3.0 6.0 0.00 0.00 0.00 63 1013.2
20260503031656 46 185 3.0 5.0 0.00 0.00 0.00 63 1013.3
20260503030656 46 195 2.0 3.0 0.00 0.00 0.00 63 1013.4
20260503025657 46 196 2.0 4.0 0.00 0.00 0.00 63 1013.4
20260503024656 46 207 3.0 4.0 0.00 0.00 0.00 62 1013.4
20260503023656 47 211 2.0 4.0 0.00 0.00 0.00 60 1013.4
20260503022657 47 214 2.0 3.0 0.00 0.00 0.00 60 1013.4
20260503021656 48 221 2.0 4.0 0.00 0.00 0.00 58 1013.6
20260503020656 49 226 3.0 4.0 0.00 0.00 0.00 57 1013.5
20260503015656 50 227 2.0 3.0 0.00 0.00 0.00 55 1013.5
20260503014736 50 228 3.0 4.0 0.00 0.00 0.00 56 1013.5
20260503013656 50 244 1.0 3.0 0.00 0.00 0.00 54 1013.4
20260503012655 50 244 1.0 2.0 0.00 0.00 0.00 54 1013.1
20260503011655 51 244 1.0 2.0 0.00 0.00 0.00 54 1013.1
20260503010716 51 244 2.0 4.0 0.00 0.00 0.00 53 1013.2
20260503005656 52 245 2.0 4.0 0.00 0.00 0.00 52 1013.2
20260503004655 53 246 3.0 5.0 0.00 0.00 0.00 50 1013.3
20260503003656 54 240 3.0 8.0 0.00 0.00 0.00 49 1013.2
20260503002656 54 242 4.0 7.0 0.00 0.00 0.00 48 1013.2
20260503001655 54 242 4.0 6.0 0.00 0.00 0.00 47 1013.2
20260503000655 55 245 4.0 8.0 0.00 0.00 0.00 47 1013.2
20260502235715 55 250 5.0 8.0 0.00 0.00 0.00 46 1013.3
20260502234716 56 248 3.0 6.0 0.00 0.00 0.00 47 1013.4
20260502233655 56 272 4.0 8.0 0.00 0.00 0.00 46 1013.4
20260502232655 55 243 4.0 8.0 0.00 0.00 0.00 47 1013.5
20260502231656 55 241 6.0 9.0 0.00 0.00 0.00 47 1013.6
20260502225656 56 233 4.0 8.0 0.00 0.00 0.00 46 1013.8
20260502224655 56 249 4.0 8.0 0.00 0.00 0.00 46 1013.9
20260502223655 56 251 5.0 7.0 0.00 0.00 0.00 46 1014.0
20260502222716 55 249 4.0 7.0 0.00 0.00 0.00 46 1014.1
20260502221655 56 245 5.0 10.0 0.00 0.00 0.00 44 1014.1
20260502220655 56 253 3.0 10.0 0.00 0.00 0.00 46 1014.2